Tracking 20060 objects as of 6-Dec-2019
HD Live streaming from Space Station
objects crossing your sky now

SL-8 DEB

Track SL-8 DEB now!
10-day predictions


NORAD ID: 19048
Int'l Code: 1988-029C
Perigee: 686.9 km
Apogee: 708.0 km
Inclination: 74.0 °
Period: 98.6 minutes
Semi major axis: 7068 km
RCS: 0.0085 m2 (small)
Launch date: April 5, 1988
Source: Commonwealth of Independent States (former USSR) (CIS)
Launch site: PLESETSK MISSILE AND SPACE COMPLEX (PKMTR)

Note: This is SATELLITE DEBRIS
aabbcc
Your satellite tracking list
Your tracking list is empty




NASA's NSSDC Master Catalog

Two Line Element Set (TLE):
1 19048U 88029C   19339.87125341 +.00000251 +00000-0 +57410-4 0  9994
2 19048 074.0244 353.1106 0014926 278.0591 146.8943 14.60902322674177
Source of the keplerian elements: AFSPC